TimeMST,TemperatureF,Dew PointF,Humidity,Sea Level PressureIn,VisibilityMPH,Wind Direction,Wind SpeedMPH,Gust SpeedMPH,PrecipitationIn,Events,Conditions,WindDirDegrees,DateUTC
12:15 AM,33.4,14.9,47,30.14,10.0,Calm,Calm,-,N/A,,Clear,0,2014-01-26 07:15:00
12:35 AM,32.7,15.4,49,30.13,10.0,NW,4.6,-,N/A,,Clear,310,2014-01-26 07:35:00
12:55 AM,33.1,15.3,48,30.13,10.0,West,5.8,-,N/A,,Clear,270,2014-01-26 07:55:00
1:15 AM,32.9,15.3,48,30.12,10.0,SW,3.5,-,N/A,,Clear,230,2014-01-26 08:15:00
1:35 AM,34.0,14.0,44,30.12,10.0,West,8.1,-,N/A,,Clear,260,2014-01-26 08:35:00
1:55 AM,32.0,13.1,46,30.12,10.0,West,8.1,-,N/A,,Clear,260,2014-01-26 08:55:00
2:15 AM,34.9,12.2,39,30.12,10.0,North,4.6,-,N/A,,Clear,350,2014-01-26 09:15:00
2:35 AM,31.1,12.7,47,30.12,10.0,WSW,3.5,-,N/A,,Clear,240,2014-01-26 09:35:00
2:55 AM,31.5,12.6,46,30.12,10.0,WNW,5.8,-,N/A,,Clear,290,2014-01-26 09:55:00
3:15 AM,30.0,12.4,48,30.12,10.0,West,5.8,-,N/A,,Clear,270,2014-01-26 10:15:00
3:35 AM,29.1,12.4,50,30.12,10.0,West,4.6,-,N/A,,Clear,270,2014-01-26 10:35:00
3:55 AM,29.5,12.2,49,30.12,10.0,WSW,4.6,-,N/A,,Clear,250,2014-01-26 10:55:00
4:15 AM,25.5,12.4,58,30.10,10.0,West,4.6,-,N/A,,Clear,280,2014-01-26 11:15:00
4:35 AM,25.3,12.2,58,30.10,10.0,Calm,Calm,-,N/A,,Clear,0,2014-01-26 11:35:00
4:55 AM,25.7,12.7,58,30.10,10.0,Calm,Calm,-,N/A,,Clear,0,2014-01-26 11:55:00
5:15 AM,25.0,12.4,59,30.09,10.0,Calm,Calm,-,N/A,,Clear,0,2014-01-26 12:15:00
5:35 AM,26.2,12.7,57,30.08,10.0,Calm,Calm,-,N/A,,Clear,0,2014-01-26 12:35:00
5:55 AM,24.3,12.4,61,30.08,10.0,Calm,Calm,-,N/A,,Clear,0,2014-01-26 12:55:00
6:15 AM,25.2,12.7,59,30.07,10.0,Calm,Calm,-,N/A,,Clear,0,2014-01-26 13:15:00
6:35 AM,26.4,12.9,57,30.08,10.0,NW,3.5,-,N/A,,Clear,310,2014-01-26 13:35:00
6:55 AM,24.3,12.4,61,30.09,10.0,West,3.5,-,N/A,,Clear,280,2014-01-26 13:55:00
7:15 AM,26.2,12.6,56,30.09,10.0,NNW,3.5,-,N/A,,Clear,330,2014-01-26 14:15:00
7:35 AM,24.1,12.9,62,30.09,10.0,Calm,Calm,-,N/A,,Clear,0,2014-01-26 14:35:00
7:55 AM,26.6,13.8,59,30.09,10.0,Calm,Calm,-,N/A,,Clear,0,2014-01-26 14:55:00
8:15 AM,27.9,13.3,54,30.09,10.0,Calm,Calm,-,N/A,,Clear,0,2014-01-26 15:15:00
8:35 AM,28.8,13.6,53,30.08,10.0,North,3.5,-,N/A,,Clear,360,2014-01-26 15:35:00
8:55 AM,31.8,13.1,46,30.07,10.0,NNW,5.8,-,N/A,,Clear,330,2014-01-26 15:55:00
9:15 AM,34.3,13.1,42,30.07,10.0,NNW,3.5,-,N/A,,Clear,330,2014-01-26 16:15:00
9:35 AM,37.6,12.6,36,30.07,10.0,NNW,4.6,-,N/A,,Clear,340,2014-01-26 16:35:00
9:55 AM,41.0,12.2,31,30.07,10.0,Calm,Calm,-,N/A,,Clear,0,2014-01-26 16:55:00
10:15 AM,44.6,12.0,27,30.07,10.0,WNW,4.6,23.0,N/A,,Clear,300,2014-01-26 17:15:00
10:35 AM,44.8,11.3,26,30.06,10.0,NW,8.1,18.4,N/A,,Clear,310,2014-01-26 17:35:00
10:55 AM,47.3,10.0,22,30.05,10.0,SSW,12.7,24.2,N/A,,Clear,210,2014-01-26 17:55:00
11:15 AM,47.8,10.0,22,30.04,10.0,SSW,15.0,19.6,N/A,,Clear,210,2014-01-26 18:15:00
11:35 AM,50.4,9.1,19,30.02,10.0,West,9.2,23.0,N/A,,Clear,260,2014-01-26 18:35:00
11:55 AM,50.9,9.7,19,30.00,10.0,WSW,12.7,24.2,N/A,,Clear,250,2014-01-26 18:55:00
12:15 PM,52.0,11.1,20,29.98,10.0,SW,19.6,29.9,N/A,,Clear,230,2014-01-26 19:15:00
12:35 PM,52.3,11.3,19,29.97,10.0,SW,23.0,33.4,N/A,,Clear,230,2014-01-26 19:35:00
12:55 PM,51.8,11.8,20,29.97,10.0,WSW,17.3,28.8,N/A,,Clear,240,2014-01-26 19:55:00
1:15 PM,51.8,11.5,20,29.96,10.0,WSW,19.6,31.1,N/A,,Clear,240,2014-01-26 20:15:00
1:35 PM,51.8,11.3,20,29.96,10.0,WSW,20.7,29.9,N/A,,Clear,240,2014-01-26 20:35:00
1:55 PM,50.4,11.3,21,29.96,10.0,WSW,24.2,35.7,N/A,,Clear,250,2014-01-26 20:55:00
2:15 PM,50.0,11.7,21,29.96,10.0,WSW,20.7,32.2,N/A,,Clear,240,2014-01-26 21:15:00
2:35 PM,50.0,11.3,21,29.96,10.0,WSW,19.6,29.9,N/A,,Clear,240,2014-01-26 21:35:00
2:55 PM,49.6,11.1,21,29.97,10.0,WSW,19.6,29.9,N/A,,Clear,250,2014-01-26 21:55:00
3:15 PM,49.3,11.1,22,29.97,10.0,West,20.7,31.1,N/A,,Clear,260,2014-01-26 22:15:00
3:35 PM,48.4,11.1,22,29.97,10.0,WSW,18.4,29.9,N/A,,Clear,250,2014-01-26 22:35:00
3:55 PM,47.3,11.3,23,29.98,10.0,West,20.7,28.8,N/A,,Clear,260,2014-01-26 22:55:00
4:15 PM,45.7,11.3,25,29.98,10.0,WSW,19.6,29.9,N/A,,Clear,250,2014-01-26 23:15:00
4:35 PM,44.6,11.7,26,29.98,10.0,WSW,19.6,25.3,N/A,,Clear,250,2014-01-26 23:35:00
4:55 PM,42.6,11.8,29,29.98,10.0,WSW,15.0,23.0,N/A,,Clear,240,2014-01-26 23:55:00
5:15 PM,41.7,11.7,29,29.99,10.0,WSW,11.5,24.2,N/A,,Clear,240,2014-01-27 00:15:00
5:35 PM,40.8,11.7,30,30.00,10.0,WSW,13.8,19.6,N/A,,Clear,240,2014-01-27 00:35:00
5:55 PM,40.1,11.7,31,30.02,10.0,WSW,10.4,20.7,N/A,,Clear,240,2014-01-27 00:55:00
6:15 PM,38.8,11.3,32,30.04,10.0,West,8.1,-,N/A,,Clear,260,2014-01-27 01:15:00
6:35 PM,39.4,11.8,32,30.04,10.0,West,6.9,-,N/A,,Clear,280,2014-01-27 01:35:00
6:55 PM,39.2,12.0,33,30.04,10.0,West,11.5,-,N/A,,Clear,260,2014-01-27 01:55:00
7:15 PM,38.8,11.8,33,30.05,10.0,West,11.5,-,N/A,,Clear,260,2014-01-27 02:15:00
7:35 PM,39.2,12.0,33,30.05,10.0,West,12.7,-,N/A,,Clear,260,2014-01-27 02:35:00
7:55 PM,38.3,12.2,34,30.05,10.0,West,11.5,17.3,N/A,,Clear,260,2014-01-27 02:55:00
8:15 PM,37.2,12.4,36,30.05,10.0,WSW,9.2,-,N/A,,Clear,250,2014-01-27 03:15:00
8:35 PM,36.7,12.6,37,30.05,10.0,WSW,10.4,-,N/A,,Clear,250,2014-01-27 03:35:00
8:55 PM,34.5,12.4,40,30.05,10.0,South,3.5,-,N/A,,Clear,170,2014-01-27 03:55:00
9:15 PM,32.5,12.9,44,30.05,10.0,SSW,3.5,-,N/A,,Clear,200,2014-01-27 04:15:00
9:35 PM,32.0,12.7,45,30.04,10.0,SE,3.5,-,N/A,,Clear,140,2014-01-27 04:35:00
9:55 PM,36.0,13.5,40,30.03,10.0,Calm,Calm,-,N/A,,Clear,0,2014-01-27 04:55:00
10:15 PM,36.0,13.1,39,30.03,10.0,SSW,3.5,-,N/A,,Clear,200,2014-01-27 05:15:00
10:35 PM,32.0,14.7,49,30.04,10.0,ESE,10.4,-,N/A,,Clear,120,2014-01-27 05:35:00
10:55 PM,32.0,19.2,59,30.05,10.0,SE,12.7,18.4,N/A,,Clear,130,2014-01-27 05:55:00
11:15 PM,30.9,21.0,67,30.05,10.0,ESE,11.5,18.4,N/A,,Clear,120,2014-01-27 06:15:00
11:35 PM,29.8,21.6,71,30.06,10.0,SE,12.7,19.6,N/A,,Clear,140,2014-01-27 06:35:00
11:55 PM,29.1,22.1,75,30.05,10.0,ESE,16.1,21.9,N/A,,Clear,120,2014-01-27 06:55:00